[[{"header":{"parameterUnit":"m.s-1","parameterCategory":2,"la1":30.2991,"la2":30.254,"lo1":-89.0895,"lo2":-89.0444,"dy":0.0017,"dx":0.0017,"nx":28,"ny":28,"refTime":"2023-07-27T21:00:00:Z","depth":"0","parameterNumber":2,"parameterNumberName":"U-component_of_CURRENTS"},"data":[0,0,0,0,0,0,0,0,0,0,0,0,0,0,0,0,0,0,0,0,0,0,0,0,0,0,0,0,0,0,0,0,0,0,0,0,0,0,0,0,0,0,0,0,0,0,0,0,0,0,0,0,0,0,0,0,0,0,0.4773,0.4774,0,0.4949,0.4951,0.4953,0.4924,0.4921,0.4917,0.4914,0.4862,0.4864,0.4866,0,0,0,0,0,0,0,0,0,0,0,0,0,0.463,0.4632,0.4773,0.4775,0.4776,0.4948,0.4951,0.4954,0.4925,0.492,0.4916,0.4912,0.4862,0.4864,0.4866,0,0,0,0,0,0,0,0,0,0,0,0,0,0.4741,0.4632,0.4772,0.4779,0.4781,0.4948,0.4951,0.4955,0.4926,0.492,0.4915,0.491,0.4861,0.4864,0.4867,0.4987,0,0,0.4875,0.4876,0,0,0,0,0,0,0,0,0.4735,0.4747,0.4776,0.4779,0.4782,0.4905,0.4882,0.4953,0.4927,0.4875,0.4914,0.4908,0.4857,0.486,0.4914,0.4985,0.4983,0.4875,0.4877,0.4878,0.4879,0,0,0,0,0,0,0,0.4727,0.474,0.4847,0.4779,0.4782,0.4848,0.4857,0.4898,0.4892,0.488,0.4877,0.4891,0.4856,0.4911,0.4911,0.4982,0.4875,0.4878,0.4879,0.488,0.5137,0.5142,0,0,0,0,0,0,0.4691,0.4733,0.4841,0.4852,0.474,0.4854,0.4864,0.4874,0.4897,0.4896,0.4895,0.4889,0.4909,0.4908,0.4909,0.5012,0.4878,0.4881,0.4882,0.5132,0.5138,0.5144,0,0,0,0,0,0,0.4688,0.4699,0.4834,0.4793,0.4813,0.4859,0.4874,0.488,0.4915,0.491,0.4904,0.4918,0.4905,0.4905,0.4942,0.501,0.4882,0.4884,0.5126,0.5134,0.5141,0.5243,0,0,0,0,0,0,0.4683,0.4697,0.4709,0.479,0.4814,0.4929,0.4878,0.4887,0.4931,0.4924,0.4929,0.4921,0.4901,0.4938,0.4944,0.5011,0.4887,0.5119,0.5129,0.5139,0.5233,0.5253,0.527,0,0,0,0,0,0.4677,0.4718,0.4708,0.4722,0.4823,0.4931,0.4952,0.497,0.4937,0.4978,0.4972,0.4919,0.5004,0.4944,0.4951,0.502,0.5115,0.5127,0.5138,0.5225,0.5249,0.527,0,0,0,0,0,0,0.4678,0.4721,0.4711,0.4764,0.4834,0.4924,0.4979,0.4982,0.5024,0.501,0.4975,0.4971,0.5046,0.5031,0.4965,0.5132,0.5057,0.5071,0.5122,0.5145,0.5163,0.5254,0.4889,0,0,0,0,0,0.468,0.4715,0.4771,0.4824,0.4857,0.4919,0.4966,0.4983,0.5026,0.504,0.5041,0.5061,0.5117,0.5116,0.517,0.5242,0.5276,0.53,0.5319,0.5334,0.5421,0.5543,0.558,0.5182,0.5182,0.5182,0,0,0.4707,0.473,0.4756,0.4826,0.4887,0.4971,0.4936,0.5026,0.5098,0.5029,0.5122,0.5136,0.5159,0.5253,0.5284,0.5227,0.5453,0.5349,0.5361,0.5441,0.5559,0.5598,0.5632,0.519,0.5188,0.5187,0,0,0.479,0.4791,0.4852,0.4909,0.4988,0.5028,0.5046,0.5133,0.517,0.5261,0.5247,0.5315,0.5359,0.542,0.5446,0.5613,0.5566,0.56,0.5742,0.5857,0.589,0.5921,0.5943,0.5975,0.5584,0.5585,0.5585,0,0.4815,0.4886,0.4897,0.4975,0.5039,0.5047,0.5148,0.5211,0.5297,0.5376,0.5294,0.549,0.547,0.5645,0.5685,0.566,0.5678,0.5632,0.588,0.5911,0.594,0.5957,0.5991,0.5591,0.559,0.559,0.5589,0,0.4957,0.5004,0.5058,0.5137,0.5211,0.5305,0.5372,0.5458,0.5477,0.5546,0.5721,0.5734,0.5854,0.5845,0.5801,0.6018,0.5944,0.5898,0.5811,0.5986,0.5992,0.6025,0.56,0.5598,0.5596,0.5594,0,0,0.501,0.5131,0.5143,0.521,0.5302,0.539,0.5524,0.5682,0.58,0.5876,0.6046,0.6154,0.6173,0.6214,0.6183,0.6261,0.6418,0.616,0.6162,0.6164,0.6614,0.6387,0.6399,0.6393,0.6401,0.6408,0.6506,0,0.5111,0.5296,0.5312,0.5474,0.5579,0.5628,0.5762,0.5904,0.5985,0.6139,0.6229,0.6351,0.6303,0.6332,0.6438,0.6428,0.6525,0.6394,0.6466,0.6469,0.6232,0.644,0.6062,0.6106,0.6538,0.6543,0.6547,0,0.5218,0.5334,0.5535,0.5674,0.5724,0.5805,0.603,0.6148,0.6355,0.6425,0.6594,0.6619,0.6789,0.6674,0.6863,0.6768,0.6752,0.6727,0.6728,0.6532,0.631,0.6021,0.615,0.601,0.6598,0.6594,0.659,0,0.5303,0.5455,0.563,0.5688,0.5871,0.5965,0.605,0.6257,0.6344,0.6593,0.6631,0.6892,0.6915,0.7046,0.6995,0.6941,0.7135,0.7039,0.685,0.6828,0.6541,0.648,0.6542,0.7243,0.7243,0.7242,0.7242,0,0.5408,0.5525,0.5672,0.5785,0.5931,0.6051,0.6209,0.6343,0.6504,0.6591,0.676,0.6829,0.7004,0.7083,0.7105,0.7074,0.7243,0.6962,0.689,0.6553,0.6495,0.6384,0.6338,0.7246,0.7245,0.7244,0.7244,0,0.5466,0.5592,0.5748,0.594,0.5973,0.6079,0.6162,0.6265,0.6437,0.6534,0.6587,0.6784,0.6895,0.7018,0.7168,0.7116,0.6951,0.7107,0.6652,0.6528,0.6176,0.6148,0.603,0.5867,0.694,0.6936,0.6932,0,0.5525,0.5635,0.5799,0.5834,0.589,0.6011,0.6061,0.6218,0.6272,0.6465,0.6479,0.6633,0.6692,0.6839,0.6831,0.6883,0.6764,0.6533,0.6405,0.6185,0.6105,0.5945,0.5807,0.6033,0.6022,0.6013,0.6006,0,0.559,0.5639,0.5759,0.5811,0.5844,0.5878,0.5939,0.5949,0.6123,0.6176,0.6227,0.6296,0.6397,0.6273,0.635,0.6354,0.6195,0.6349,0.6281,0.5578,0.5258,0.5049,0.5891,0.5929,0.5936,0.5942,0.5946,0.5949,0.5591,0.5608,0.5716,0.5737,0.5748,0.5712,0.5656,0.569,0.5712,0.5657,0.5875,0.5782,0.5773,0.5812,0.5789,0.5516,0.5644,0.5329,0.5362,0.526,0.4971,0.5612,0.5465,0.547,0.5474,0.5478,0.5482,0,0.5542,0.5571,0.5606,0.56,0.5519,0.5576,0.5531,0.5404,0.5292,0.5261,0.5218,0.5059,0.4918,0.4918,0.4757,0.4578,0.4423,0.448,0.4213,0.4168,0.4866,0.4693,0.4177,0.4177,0.4177,0.4177,0.4177,0.4178,0.5559,0.5545,0.5535,0.538,0.5331,0.5114,0.5036,0.4844,0.4745,0.4403,0.4201,0.4211,0.4397,0.431,0.4087,0.3984,0.3772,0.3514,0.3679,0.42,0.4282,0.4361,0.4192,0.3579,0.3578,0.2732,0.2726,0.2721]},{"header":{"parameterUnit":"m.s-1","parameterCategory":2,"la1":30.2991,"la2":30.254,"lo1":-89.0895,"lo2":-89.0444,"dy":0.0017,"dx":0.0017,"nx":28,"ny":28,"refTime":"2023-07-27T21:00:00:Z","depth":"0","parameterNumber":3,"parameterNumberName":"V-component_of_CURRENTS"},"data":[0,0,0,0,0,0,0,0,0,0,0,0,0,0,0,0,0,0,0,0,0,0,0,0,0,0,0,0,0,0,0,0,0,0,0,0,0,0,0,0,0,0,0,0,0,0,0,0,0,0,0,0,0,0,0,0,0,0,0.0283,0.0283,0,0.0269,0.027,0.027,0.0226,0.0225,0.0224,0.0223,0.0162,0.0162,0.0161,0,0,0,0,0,0,0,0,0,0,0,0,0,0.03,0.03,0.0283,0.0283,0.0282,0.0269,0.027,0.027,0.0227,0.0225,0.0224,0.0222,0.0162,0.0162,0.0161,0,0,0,0,0,0,0,0,0,0,0,0,0,0.0293,0.03,0.0283,0.0257,0.0255,0.0269,0.027,0.027,0.0227,0.0225,0.0223,0.0222,0.0162,0.0162,0.0161,0.0193,0,0,0.0159,0.0159,0,0,0,0,0,0,0,0,0.0294,0.0293,0.0261,0.0259,0.0256,0.0245,0.0253,0.0241,0.0227,0.0241,0.0223,0.0221,0.0185,0.0182,0.0189,0.0191,0.0188,0.0159,0.0158,0.0158,0.0158,0,0,0,0,0,0,0,0.0294,0.0293,0.0281,0.0261,0.0258,0.0256,0.0253,0.0251,0.0225,0.0239,0.0235,0.023,0.0183,0.019,0.0187,0.0187,0.0159,0.0158,0.0158,0.0158,0.0225,0.0227,0,0,0,0,0,0,0.0291,0.0294,0.0281,0.028,0.0267,0.0256,0.0253,0.0253,0.0226,0.0219,0.0231,0.0228,0.0192,0.0188,0.0184,0.0239,0.0158,0.0157,0.0157,0.0223,0.0226,0.0228,0,0,0,0,0,0,0.0291,0.029,0.0282,0.0284,0.0282,0.0258,0.0258,0.0254,0.0258,0.022,0.0212,0.024,0.019,0.0185,0.0192,0.0235,0.0157,0.0156,0.022,0.0224,0.0227,0.0337,0,0,0,0,0,0,0.0292,0.0291,0.0298,0.0284,0.0282,0.0307,0.0259,0.0255,0.0256,0.0252,0.0225,0.0217,0.0188,0.0193,0.0191,0.0233,0.0156,0.0217,0.0222,0.0226,0.033,0.0344,0.0355,0,0,0,0,0,0.0293,0.0314,0.0299,0.0297,0.029,0.0309,0.0309,0.0286,0.0259,0.028,0.0254,0.0218,0.0218,0.0194,0.0191,0.0234,0.0215,0.0221,0.0225,0.0325,0.0341,0.0355,0,0,0,0,0,0,0.0338,0.0311,0.0294,0.0309,0.0313,0.03,0.032,0.0297,0.0296,0.0291,0.0243,0.0236,0.0263,0.0235,0.021,0.0267,0.0213,0.0218,0.029,0.0305,0.0317,0.0373,0.0155,0,0,0,0,0,0.0349,0.0348,0.0335,0.0349,0.0358,0.0341,0.0345,0.0333,0.0323,0.0321,0.0296,0.028,0.0285,0.0281,0.0281,0.0308,0.0302,0.0336,0.0348,0.0359,0.0404,0.0426,0.0444,0.0244,0.0244,0.0244,0,0,0.0368,0.0354,0.0353,0.0357,0.0361,0.0397,0.0341,0.0364,0.039,0.0316,0.0347,0.0326,0.0304,0.0338,0.0348,0.0316,0.0409,0.0365,0.0374,0.0414,0.0433,0.0452,0.047,0.0248,0.0247,0.0247,0,0,0.042,0.0403,0.0428,0.0443,0.0451,0.0445,0.0454,0.0452,0.045,0.0474,0.0434,0.0446,0.0434,0.0442,0.0439,0.0523,0.0477,0.051,0.0612,0.0632,0.0649,0.0664,0.0667,0.0681,0.051,0.051,0.051,0,0.045,0.0476,0.0444,0.0487,0.0511,0.0473,0.053,0.0532,0.0527,0.0556,0.0499,0.054,0.0497,0.0572,0.0586,0.0555,0.0548,0.0553,0.0649,0.0663,0.0677,0.0677,0.0691,0.0516,0.0515,0.0515,0.0514,0,0.052,0.0556,0.0584,0.0615,0.0638,0.0684,0.0682,0.0708,0.0689,0.0695,0.0758,0.0713,0.0749,0.0722,0.067,0.0757,0.0715,0.0664,0.0612,0.0704,0.0697,0.071,0.0524,0.0522,0.0521,0.0519,0,0,0.056,0.0621,0.0633,0.0682,0.0714,0.0745,0.0805,0.0865,0.0935,0.0915,0.1016,0.0991,0.098,0.098,0.0925,0.092,0.0971,0.0832,0.083,0.0838,0.1009,0.0886,0.0887,0.0927,0.0931,0.0933,0.096,0,0.0636,0.0744,0.0744,0.0855,0.0922,0.0923,0.0992,0.1038,0.1063,0.1149,0.113,0.1193,0.1074,0.1098,0.1085,0.1026,0.1014,0.0969,0.0919,0.0918,0.08,0.0902,0.0822,0.0832,0.0972,0.0974,0.0976,0,0.0708,0.0775,0.0899,0.1005,0.1035,0.1083,0.1205,0.1263,0.1365,0.1395,0.1461,0.1449,0.149,0.1347,0.1316,0.1291,0.1171,0.1088,0.1086,0.0954,0.0821,0.0767,0.085,0.0619,0.0995,0.0994,0.0992,0,0.0768,0.0881,0.0985,0.1022,0.1133,0.1188,0.1239,0.1344,0.1432,0.1564,0.1655,0.1693,0.1731,0.1627,0.1456,0.1398,0.139,0.1288,0.1067,0.1056,0.0975,0.095,0.0838,0.1253,0.1253,0.1253,0.1253,0,0.0859,0.0944,0.1018,0.1086,0.1214,0.1259,0.1411,0.1478,0.162,0.1785,0.1786,0.1926,0.1797,0.1769,0.1575,0.1387,0.149,0.113,0.1074,0.1005,0.0985,0.0765,0.0651,0.1254,0.1254,0.1254,0.1254,0,0.0929,0.0981,0.1105,0.1219,0.125,0.1342,0.1485,0.1609,0.173,0.1952,0.2009,0.2121,0.2107,0.1932,0.1783,0.1544,0.1214,0.1246,0.1164,0.1097,0.0641,0.0536,0.0388,0.0308,0.1038,0.1035,0.1033,0,0.0973,0.1046,0.118,0.1245,0.1294,0.142,0.1522,0.1651,0.1797,0.2087,0.2213,0.2283,0.2381,0.2117,0.1721,0.1391,0.1158,0.1038,0.0898,0.0643,0.0487,0.0398,0.0337,0.0834,0.083,0.0827,0.0825,0,0.1051,0.1094,0.1194,0.1326,0.1423,0.1567,0.1717,0.1856,0.2073,0.2295,0.2586,0.2696,0.245,0.2112,0.1602,0.1344,0.0855,0.0961,0.0743,0.0373,0.0231,0.0117,0.0774,0.0799,0.0801,0.0803,0.0805,0.0806,0.1093,0.1156,0.1269,0.1398,0.1522,0.1708,0.1873,0.2086,0.2375,0.2721,0.281,0.2967,0.2412,0.1738,0.1374,0.0586,0.0649,0.0308,0.0222,0.0171,0.0033,0.0615,0.0531,0.0532,0.0533,0.0533,0.0534,0,0.1124,0.1198,0.1322,0.1495,0.1655,0.172,0.2008,0.2222,0.2606,0.2837,0.3087,0.2816,0.2154,0.1467,0.0439,-0.0068,-0.0209,-0.0328,-0.0453,-0.0462,0.0095,0.0019,-0.0235,-0.0235,-0.0235,-0.0235,-0.0234,-0.0234,0.1149,0.1255,0.1319,0.1565,0.1708,0.1977,0.2173,0.2501,0.273,0.2988,0.2995,0.2991,0.242,0.0701,-0.0452,-0.068,-0.0929,-0.1073,-0.1134,-0.0775,-0.0722,-0.0671,-0.077,-0.1185,-0.1187,-0.1664,-0.1669,-0.1673]}],[{"header":{"parameterUnit":"m.s-1","parameterCategory":2,"la1":30.2991,"la2":30.254,"lo1":-89.0895,"lo2":-89.0444,"dy":0.0017,"dx":0.0017,"nx":28,"ny":28,"refTime":"2023-07-27T21:00:00:Z","depth":"2","parameterNumber":2,"parameterNumberName":"U-component_of_CURRENTS"},"data":[0,0,0,0,0,0,0,0,0,0,0,0,0,0,0,0,0,0,0,0,0,0,0,0,0,0,0,0,0,0,0,0,0,0,0,0,0,0,0,0,0,0,0,0,0,0,0,0,0,0,0,0,0,0,0,0,0,0,0.3592,0.3594,0,0.3617,0.3616,0.3615,0.3583,0.3584,0.3584,0.3585,0.3683,0.3685,0.3687,0,0,0,0,0,0,0,0,0,0,0,0,0,0.3483,0.3483,0.3592,0.3594,0.3596,0.3618,0.3616,0.3615,0.3583,0.3584,0.3584,0.3585,0.3682,0.3684,0.3687,0,0,0,0,0,0,0,0,0,0,0,0,0,0.3504,0.3484,0.3592,0.3596,0.3598,0.3618,0.3616,0.3614,0.3583,0.3584,0.3584,0.3585,0.3681,0.3684,0.3687,0.3692,0,0,0.3697,0.3698,0,0,0,0,0,0,0,0,0.3503,0.3505,0.3593,0.3596,0.3599,0.3614,0.3615,0.365,0.3583,0.3569,0.3585,0.3586,0.3678,0.3681,0.3657,0.3696,0.3701,0.3697,0.3699,0.3701,0.3702,0,0,0,0,0,0,0,0.3501,0.3504,0.3583,0.3596,0.3599,0.3587,0.3589,0.3619,0.3606,0.357,0.3573,0.3605,0.3677,0.3654,0.366,0.3702,0.3697,0.37,0.3702,0.3703,0.3926,0.3929,0,0,0,0,0,0,0.3536,0.3503,0.3583,0.3586,0.3572,0.359,0.3591,0.3593,0.3604,0.3611,0.3604,0.3604,0.3648,0.3656,0.3664,0.3827,0.3701,0.3704,0.3705,0.3922,0.3926,0.3931,0,0,0,0,0,0,0.3533,0.3541,0.3582,0.3561,0.3568,0.3593,0.3594,0.3594,0.3617,0.3632,0.3637,0.3637,0.3649,0.3659,0.3745,0.3825,0.3705,0.3708,0.3917,0.3923,0.3929,0.4055,0,0,0,0,0,0,0.3529,0.3539,0.356,0.3563,0.3572,0.3633,0.3596,0.3594,0.3642,0.3642,0.3662,0.3668,0.365,0.3741,0.3748,0.3827,0.371,0.3912,0.392,0.3927,0.4045,0.4064,0.408,0,0,0,0,0,0.3524,0.3545,0.356,0.3572,0.3596,0.3638,0.3639,0.3646,0.3644,0.3665,0.3691,0.367,0.3794,0.3746,0.3754,0.3836,0.3908,0.3917,0.3926,0.4038,0.4061,0.408,0,0,0,0,0,0,0.3516,0.3547,0.3562,0.3594,0.364,0.364,0.3639,0.3678,0.3706,0.3715,0.3712,0.3722,0.3849,0.3821,0.3768,0.3926,0.3852,0.3863,0.3934,0.3955,0.3972,0.3974,0.3713,0,0,0,0,0,0.3529,0.3545,0.359,0.3623,0.3618,0.364,0.3662,0.3703,0.3732,0.3743,0.3768,0.3806,0.3882,0.39,0.3959,0.4018,0.402,0.4081,0.4098,0.4112,0.4123,0.4255,0.4285,0.396,0.396,0.396,0,0,0.3532,0.3562,0.3568,0.3624,0.3613,0.3663,0.3647,0.3703,0.3772,0.3755,0.3824,0.3891,0.3925,0.4019,0.4068,0.4002,0.4194,0.4124,0.4136,0.4138,0.4268,0.4299,0.4327,0.3966,0.3965,0.3964,0,0,0.3565,0.3555,0.3583,0.3621,0.3688,0.3704,0.3743,0.3788,0.3808,0.392,0.3945,0.4057,0.4121,0.4169,0.4199,0.4345,0.4316,0.4369,0.4419,0.4548,0.4576,0.46,0.4581,0.4603,0.4337,0.4337,0.4337,0,0.3586,0.3618,0.3607,0.366,0.3684,0.3732,0.3783,0.3824,0.3926,0.3958,0.3969,0.415,0.4198,0.4318,0.4381,0.4388,0.4406,0.4331,0.4571,0.4596,0.4619,0.4594,0.4617,0.4344,0.4343,0.4343,0.4342,0,0.3622,0.3682,0.368,0.3748,0.3785,0.3831,0.3892,0.3961,0.4013,0.4079,0.4232,0.4307,0.4391,0.4459,0.4469,0.4653,0.4592,0.4611,0.4513,0.4659,0.4622,0.4644,0.4354,0.4352,0.435,0.4348,0,0,0.3595,0.3688,0.3696,0.3737,0.3829,0.3856,0.3955,0.4041,0.4099,0.424,0.4334,0.4506,0.4542,0.4582,0.4622,0.4748,0.4928,0.4749,0.4752,0.4717,0.5123,0.4911,0.4911,0.5005,0.5011,0.5016,0.5007,0,0.3626,0.3699,0.3765,0.3861,0.387,0.395,0.405,0.4163,0.4206,0.4318,0.4445,0.4577,0.4578,0.4656,0.4776,0.4914,0.5001,0.4921,0.4996,0.4996,0.4784,0.4938,0.4592,0.4545,0.5027,0.5031,0.5033,0,0.3631,0.368,0.3741,0.3885,0.3896,0.3987,0.4058,0.4185,0.4347,0.4421,0.4531,0.4602,0.4783,0.4812,0.5021,0.497,0.5058,0.5155,0.5157,0.4935,0.4828,0.4493,0.4565,0.5068,0.5065,0.5063,0.506,0,0.3521,0.3667,0.3695,0.3732,0.3909,0.3962,0.4069,0.4197,0.4296,0.4478,0.46,0.4719,0.487,0.4997,0.514,0.5102,0.5401,0.534,0.5207,0.5185,0.489,0.4834,0.5543,0.5543,0.5543,0.5543,0.5543,0,0.3481,0.3539,0.3645,0.3664,0.3781,0.3905,0.4011,0.4167,0.4351,0.4477,0.4646,0.4744,0.4965,0.5111,0.5182,0.5235,0.5399,0.5238,0.5212,0.4913,0.4861,0.5324,0.5299,0.5543,0.5543,0.5543,0.5543,0,0.3391,0.3456,0.3515,0.3652,0.374,0.3799,0.403,0.4112,0.4333,0.45,0.4601,0.4836,0.4993,0.5153,0.5375,0.5286,0.5373,0.5378,0.4937,0.4859,0.502,0.5002,0.511,0.5103,0.5098,0.5093,0.5089,0,0.3356,0.3365,0.3483,0.3542,0.3617,0.3742,0.3892,0.4112,0.4166,0.4488,0.4574,0.4821,0.4887,0.5095,0.5078,0.5102,0.5317,0.4764,0.4631,0.5033,0.4997,0.4988,0.4977,0.4254,0.4243,0.4235,0.4228,0,0.3257,0.3276,0.3278,0.344,0.3546,0.3698,0.3852,0.3891,0.4138,0.4303,0.447,0.4562,0.4735,0.4575,0.4649,0.4613,0.4697,0.4576,0.5223,0.441,0.4225,0.4189,0.4208,0.4152,0.4159,0.4165,0.4169,0.4172,0.3152,0.3124,0.314,0.3281,0.3453,0.3599,0.3632,0.373,0.3847,0.3994,0.4153,0.4219,0.4236,0.4117,0.4009,0.3954,0.4234,0.4048,0.4076,0.4113,0.401,0.3826,0.3649,0.3653,0.3657,0.3661,0.3664,0,0.2976,0.3009,0.3054,0.3155,0.3258,0.3509,0.3615,0.3555,0.3571,0.3699,0.3786,0.3494,0.3383,0.347,0.3238,0.3165,0.3167,0.3054,0.3051,0.3129,0.3198,0.305,0.2433,0.2429,0.2425,0.2421,0,0,0.2886,0.2821,0.2821,0.2889,0.3106,0.3252,0.3304,0.3246,0.3222,0.314,0.3143,0.3325,0.3388,0.2888,0.2792,0.2583,0.2846,0.249,0.3491,0.3572,0.3636,0.3793,0.3654,0,0,0,0,0]},{"header":{"parameterUnit":"m.s-1","parameterCategory":2,"la1":30.2991,"la2":30.254,"lo1":-89.0895,"lo2":-89.0444,"dy":0.0017,"dx":0.0017,"nx":28,"ny":28,"refTime":"2023-07-27T21:00:00:Z","depth":"2","parameterNumber":3,"parameterNumberName":"V-component_of_CURRENTS"},"data":[0,0,0,0,0,0,0,0,0,0,0,0,0,0,0,0,0,0,0,0,0,0,0,0,0,0,0,0,0,0,0,0,0,0,0,0,0,0,0,0,0,0,0,0,0,0,0,0,0,0,0,0,0,0,0,0,0,0,0.0003,0.0002,0,-0.0065,-0.0066,-0.0067,-0.0105,-0.0105,-0.0105,-0.0105,-0.0145,-0.0146,-0.0147,0,0,0,0,0,0,0,0,0,0,0,0,0,0.0044,0.0044,0.0003,0.0002,0.0001,-0.0065,-0.0066,-0.0067,-0.0105,-0.0105,-0.0105,-0.0105,-0.0145,-0.0146,-0.0147,0,0,0,0,0,0,0,0,0,0,0,0,0,0.0005,0.0044,0.0003,-0.0025,-0.0028,-0.0065,-0.0066,-0.0067,-0.0105,-0.0105,-0.0105,-0.0105,-0.0145,-0.0146,-0.0148,-0.0157,0,0,-0.0152,-0.0153,0,0,0,0,0,0,0,0,0.0008,0.0004,-0.002,-0.0023,-0.0027,-0.0076,-0.0066,-0.0095,-0.0105,-0.0077,-0.0105,-0.0105,-0.0119,-0.0122,-0.0137,-0.0158,-0.016,-0.0153,-0.0153,-0.0154,-0.0155,0,0,0,0,0,0,0,0.001,0.0006,-0.0025,-0.0021,-0.0025,-0.0053,-0.0058,-0.0072,-0.0097,-0.008,-0.0082,-0.0088,-0.012,-0.0136,-0.0138,-0.0161,-0.0153,-0.0154,-0.0155,-0.0155,-0.0167,-0.0167,0,0,0,0,0,0,0.0024,0.0009,-0.0023,-0.0027,-0.0008,-0.0053,-0.0059,-0.0061,-0.0098,-0.0103,-0.0088,-0.009,-0.0133,-0.0136,-0.014,-0.011,-0.0154,-0.0156,-0.0157,-0.0168,-0.0167,-0.0167,0,0,0,0,0,0,0.0025,0.0022,-0.002,-0.001,-0.0017,-0.0053,-0.0055,-0.0062,-0.0069,-0.0104,-0.011,-0.0086,-0.0133,-0.0137,-0.0139,-0.0114,-0.0156,-0.0158,-0.0169,-0.0168,-0.0167,-0.0078,0,0,0,0,0,0,0.0027,0.0023,0.0028,-0.0009,-0.0017,-0.0018,-0.0056,-0.0063,-0.0072,-0.0075,-0.0105,-0.0109,-0.0133,-0.0136,-0.014,-0.0117,-0.0159,-0.0169,-0.0168,-0.0167,-0.0082,-0.0075,-0.0068,0,0,0,0,0,0.0028,0.0039,0.0029,0.0025,-0.001,-0.0017,-0.0023,-0.0051,-0.0072,-0.006,-0.0087,-0.0108,-0.0132,-0.0137,-0.0142,-0.0118,-0.017,-0.0169,-0.0167,-0.0085,-0.0076,-0.0068,0,0,0,0,0,0,0.0061,0.0035,0.0023,0.0026,0.0016,-0.0022,-0.0024,-0.0042,-0.0057,-0.0058,-0.0099,-0.0104,-0.0099,-0.0122,-0.0127,-0.012,-0.0155,-0.0154,-0.0091,-0.0082,-0.0076,-0.0035,-0.016,0,0,0,0,0,0.007,0.0068,0.0048,0.0049,0.0046,0.0013,0.0004,-0.0005,-0.0026,-0.0034,-0.0055,-0.008,-0.01,-0.01,-0.012,-0.0111,-0.0134,-0.0101,-0.0094,-0.0088,-0.0059,-0.0065,-0.0055,-0.0162,-0.0162,-0.0162,0,0,0.008,0.0066,0.0064,0.0056,0.0037,0.0059,0.0008,0.0011,0.0029,-0.0034,-0.002,-0.0055,-0.0094,-0.0087,-0.0086,-0.0099,-0.0078,-0.0086,-0.008,-0.0055,-0.0062,-0.0051,-0.0042,-0.0161,-0.0161,-0.0161,0,0,0.0115,0.009,0.0112,0.0114,0.0109,0.0092,0.0101,0.0082,0.0072,0.0081,0.0034,0.0022,-0.0004,-0.0021,-0.0038,-0.0003,-0.0045,-0.0018,0.006,0.0054,0.0064,0.0072,0.0026,0.003,-0.0008,-0.0007,-0.0007,0,0.0138,0.0158,0.0119,0.0152,0.0161,0.0116,0.016,0.0143,0.013,0.0133,0.0105,0.0066,0.0033,0.0036,0.0047,0.0018,-0.0007,0.0032,0.0066,0.0074,0.0081,0.0032,0.0035,-0.0003,-0.0004,-0.0004,-0.0004,0,0.0193,0.0221,0.0232,0.0258,0.0263,0.0289,0.0272,0.0282,0.0259,0.0244,0.0241,0.0185,0.0163,0.0146,0.011,0.0138,0.0094,0.0071,0.0051,0.0098,0.0042,0.0043,0.0003,0.0002,0.0,-0.0001,0,0,0.0233,0.0268,0.0279,0.0317,0.0326,0.0343,0.037,0.0387,0.0426,0.038,0.0414,0.0356,0.0313,0.0291,0.0232,0.0236,0.0244,0.0187,0.0185,0.0153,0.0206,0.0128,0.012,0.023,0.0232,0.0233,0.0136,0,0.03,0.0385,0.038,0.0466,0.0509,0.0489,0.0521,0.053,0.0528,0.0552,0.0469,0.0478,0.0366,0.037,0.0341,0.026,0.0257,0.0271,0.0157,0.0154,0.0089,0.0124,0.0156,0.0071,0.0137,0.0137,0.0137,0,0.0369,0.0417,0.0512,0.0582,0.0599,0.0641,0.07,0.0733,0.0739,0.074,0.0708,0.0643,0.0581,0.0521,0.0382,0.0391,0.0322,0.0267,0.0261,0.0169,0.008,0.004,0.007,0.0139,0.0139,0.0139,0.0139,0,0.0426,0.0514,0.0591,0.0615,0.0682,0.0721,0.0756,0.0791,0.0855,0.0871,0.0936,0.0795,0.0785,0.0634,0.0471,0.0431,0.036,0.0276,0.0143,0.0134,0.0132,0.0121,0.0256,0.0256,0.0256,0.0257,0.0257,0,0.0505,0.0571,0.0626,0.0677,0.077,0.0794,0.0915,0.0937,0.102,0.1145,0.1034,0.1098,0.0835,0.0743,0.0539,0.0329,0.0389,0.0171,0.012,0.0156,0.0149,0.0191,0.0185,0.0253,0.0254,0.0255,0.0255,0,0.0573,0.06,0.0706,0.0789,0.0803,0.0884,0.1016,0.1129,0.1196,0.1365,0.1383,0.1326,0.1175,0.092,0.0703,0.0458,0.0251,0.0202,0.0235,0.0189,-0.0008,-0.0008,-0.0043,-0.0046,-0.0049,-0.0051,-0.0053,0,0.0611,0.0671,0.0784,0.0844,0.0886,0.0999,0.1091,0.1188,0.1353,0.1518,0.1628,0.1545,0.1484,0.107,0.0667,0.027,0.0287,0.007,-0.0008,0.0016,-0.003,-0.0027,-0.0024,0.0005,0.0004,0.0003,0.0002,0,0.0695,0.074,0.0831,0.0965,0.1067,0.1202,0.1368,0.1517,0.1696,0.1833,0.1989,0.1934,0.1557,0.1121,0.0601,0.0338,0.0088,0.003,0.0103,0.0069,0.0052,0.0009,0.0013,-0.0007,-0.0006,-0.0005,-0.0005,-0.0005,0.0753,0.0835,0.0964,0.1097,0.1217,0.1417,0.1586,0.1794,0.2027,0.225,0.2189,0.2106,0.1646,0.0904,0.0475,0.0031,0.0028,-0.0148,-0.014,-0.0132,-0.0115,-0.0136,-0.0231,-0.0231,-0.0231,-0.0231,-0.0232,0,0.082,0.092,0.1073,0.126,0.1444,0.1469,0.1778,0.1962,0.2249,0.2341,0.2391,0.1917,0.1442,0.0958,0.0276,-0.0164,-0.0169,-0.028,-0.0183,-0.0172,-0.0162,-0.0143,-0.0269,-0.027,-0.0271,-0.0272,0,0,0.0851,0.1016,0.1116,0.142,0.1546,0.1809,0.1992,0.2205,0.235,0.2408,0.2328,0.2139,0.1548,0.1044,0.0487,0.0121,0.0073,0.0044,0.0115,0.0306,0.0321,-0.005,-0.0006,0,0,0,0,0]}],[{"header":{"parameterUnit":"m.s-1","parameterCategory":2,"la1":30.2991,"la2":30.254,"lo1":-89.0895,"lo2":-89.0444,"dy":0.0017,"dx":0.0017,"nx":28,"ny":28,"refTime":"2023-07-27T21:00:00:Z","depth":"4","parameterNumber":2,"parameterNumberName":"U-component_of_CURRENTS"},"data":[0,0,0,0,0,0,0,0,0,0,0,0,0,0,0,0,0,0,0,0,0,0,0,0,0,0,0,0,0,0,0,0,0,0,0,0,0,0,0,0,0,0,0,0,0,0,0,0,0,0,0,0,0,0,0,0,0,0,0.1849,0.185,0,0.1877,0.1877,0.1877,0.1921,0.1922,0.1923,0.1924,0.1996,0.1997,0.1998,0,0,0,0,0,0,0,0,0,0,0,0,0,0.177,0.1772,0.1849,0.185,0.185,0.1877,0.1877,0.1877,0.192,0.1922,0.1923,0.1924,0.1996,0.1997,0.1998,0,0,0,0,0,0,0,0,0,0,0,0,0,0.1799,0.1772,0.1849,0.1878,0.1881,0.1877,0.1877,0.1877,0.192,0.1922,0.1924,0.1925,0.1996,0.1997,0.1998,0.1972,0,0,0.2002,0.2003,0,0,0,0,0,0,0,0,0.1797,0.1801,0.1873,0.1876,0.188,0.19,0.1876,0.1912,0.192,0.1902,0.1924,0.1926,0.1969,0.1973,0.1969,0.1976,0.1979,0.2002,0.2003,0.2004,0.2004,0,0,0,0,0,0,0,0.1795,0.18,0.1856,0.1874,0.1878,0.1868,0.1874,0.1882,0.1924,0.1903,0.1907,0.1916,0.1971,0.1967,0.1971,0.198,0.2002,0.2003,0.2004,0.2005,0.2166,0.2169,0,0,0,0,0,0,0.1801,0.1798,0.1856,0.1858,0.1846,0.1869,0.1875,0.1889,0.1923,0.193,0.1914,0.1918,0.1964,0.1969,0.1974,0.2103,0.2004,0.2005,0.2006,0.2162,0.2166,0.217,0,0,0,0,0,0,0.1799,0.1805,0.1855,0.1831,0.1837,0.1869,0.1883,0.1889,0.1938,0.1931,0.1939,0.1965,0.1966,0.1972,0.204,0.21,0.2005,0.2007,0.2158,0.2163,0.2168,0.226,0,0,0,0,0,0,0.1796,0.1805,0.1835,0.1832,0.1839,0.1888,0.1882,0.1888,0.1939,0.1945,0.1976,0.1982,0.1967,0.2039,0.2042,0.21,0.2008,0.2154,0.216,0.2167,0.2252,0.2268,0.2281,0,0,0,0,0,0.1793,0.181,0.1836,0.1844,0.1873,0.189,0.1894,0.1918,0.1941,0.1968,0.2004,0.1983,0.2083,0.2042,0.2045,0.2105,0.215,0.2158,0.2166,0.2246,0.2265,0.228,0,0,0,0,0,0,0.1789,0.1816,0.1845,0.1872,0.1904,0.19,0.1924,0.1948,0.1994,0.2014,0.2015,0.2023,0.2094,0.2099,0.2055,0.2176,0.2118,0.2127,0.2178,0.2196,0.2209,0.2212,0.2009,0,0,0,0,0,0.1804,0.1832,0.1858,0.1888,0.1904,0.1929,0.1948,0.197,0.1999,0.2023,0.2055,0.2093,0.2118,0.216,0.2168,0.2242,0.2235,0.229,0.2304,0.2315,0.2324,0.2387,0.2407,0.2196,0.2196,0.2196,0,0,0.18,0.1833,0.1842,0.1892,0.1913,0.1942,0.1945,0.1986,0.2026,0.2022,0.2106,0.2128,0.2143,0.2212,0.2249,0.2237,0.237,0.2325,0.2335,0.2337,0.2398,0.2418,0.2436,0.2201,0.22,0.2199,0,0,0.1807,0.185,0.1875,0.1908,0.1965,0.1978,0.2007,0.2047,0.2087,0.217,0.2168,0.2245,0.2304,0.2326,0.2342,0.2448,0.242,0.2465,0.2563,0.2626,0.2643,0.2658,0.2654,0.2668,0.2499,0.25,0.25,0,0.1811,0.1845,0.1885,0.1927,0.1942,0.2005,0.2023,0.2076,0.2146,0.2184,0.2221,0.2317,0.2356,0.2408,0.2478,0.2478,0.2489,0.249,0.2642,0.2657,0.267,0.2663,0.2677,0.2505,0.2504,0.2504,0.2503,0,0.1828,0.187,0.1887,0.1958,0.1988,0.2013,0.2078,0.2143,0.2217,0.2278,0.2372,0.2427,0.2494,0.2532,0.2558,0.267,0.2634,0.2625,0.259,0.2697,0.2682,0.2695,0.2513,0.2511,0.2509,0.2508,0,0,0.1774,0.1873,0.188,0.1906,0.1996,0.2007,0.2094,0.2165,0.2232,0.2351,0.2421,0.2542,0.2603,0.2628,0.2656,0.2754,0.2889,0.2773,0.2773,0.2751,0.2994,0.2795,0.2789,0.2918,0.2921,0.2924,0.2935,0,0.1768,0.1817,0.1875,0.1917,0.1931,0.2009,0.2068,0.2161,0.2278,0.2381,0.2475,0.2571,0.2627,0.2686,0.2791,0.2853,0.2933,0.2884,0.2909,0.2908,0.2705,0.2801,0.2935,0.2944,0.2947,0.2949,0.2951,0,0.1744,0.1783,0.1799,0.1869,0.1882,0.1937,0.2024,0.2103,0.2272,0.2361,0.2495,0.2585,0.2736,0.2775,0.2939,0.2911,0.2982,0.3027,0.3028,0.2818,0.2734,0.2824,0.2974,0.2972,0.297,0.2969,0.2967,0,0.1621,0.1718,0.1714,0.1738,0.1836,0.1876,0.1958,0.2113,0.2201,0.2385,0.2494,0.2625,0.274,0.2844,0.3,0.2996,0.315,0.3129,0.2985,0.2968,0.3099,0.3083,0.3245,0.3245,0.3245,0.3245,0.3244,0,0.1533,0.1549,0.1676,0.1664,0.1709,0.1815,0.1907,0.2012,0.219,0.2317,0.2503,0.2607,0.2793,0.2915,0.2998,0.3023,0.3147,0.3005,0.2974,0.3134,0.3122,0.3106,0.3089,0.3245,0.3245,0.3245,0.3245,0,0.1382,0.1452,0.1472,0.1585,0.1645,0.1684,0.1895,0.1971,0.2168,0.2337,0.2412,0.2644,0.2796,0.2915,0.3073,0.3014,0.305,0.3027,0.3162,0.3136,0.2814,0.2803,0.2834,0.2828,0.2822,0.2817,0.2813,0,0.1301,0.1289,0.1402,0.1432,0.15,0.162,0.1702,0.1924,0.2027,0.235,0.2398,0.2636,0.2773,0.2805,0.2927,0.2962,0.2964,0.2915,0.29,0.2814,0.2781,0.2779,0.2776,0.2805,0.2803,0.2802,0.28,0,0.1153,0.1198,0.1219,0.1293,0.1381,0.1477,0.1642,0.1712,0.1976,0.2177,0.2374,0.2494,0.2631,0.2711,0.2751,0.2788,0.2901,0.2857,0.2868,0.2854,0.2778,0.2751,0.2754,0.2781,0.2784,0.2785,0.2787,0,0.1061,0.1057,0.11,0.1162,0.1251,0.1326,0.1436,0.1602,0.1748,0.2121,0.2172,0.2433,0.2626,0.2622,0.2666,0.2665,0.264,0.2552,0.2579,0.2601,0.252,0.2388,0.2254,0,0,0,0,0,0.0981,0.0974,0.0989,0.1036,0.1107,0.1182,0.1379,0.1501,0.1781,0.1872,0.2036,0.2176,0.2306,0.2405,0.2359,0.2507,0.2599,0.2435,0.2499,0.2673,0.2696,0.2621,0,0,0,0,0,0,0.0919,0.0934,0.0943,0.0925,0.0936,0.1029,0.1157,0.1347,0.1416,0.171,0.179,0.2006,0.2139,0.2308,0.2305,0.2329,0.2318,0.2575,0.2568,0.2661,0.2681,0.2699,0.263,0,0,0,0,0]},{"header":{"parameterUnit":"m.s-1","parameterCategory":2,"la1":30.2991,"la2":30.254,"lo1":-89.0895,"lo2":-89.0444,"dy":0.0017,"dx":0.0017,"nx":28,"ny":28,"refTime":"2023-07-27T21:00:00:Z","depth":"4","parameterNumber":3,"parameterNumberName":"V-component_of_CURRENTS"},"data":[0,0,0,0,0,0,0,0,0,0,0,0,0,0,0,0,0,0,0,0,0,0,0,0,0,0,0,0,0,0,0,0,0,0,0,0,0,0,0,0,0,0,0,0,0,0,0,0,0,0,0,0,0,0,0,0,0,0,-0.0004,-0.0004,0,-0.0054,-0.0054,-0.0055,-0.0084,-0.0084,-0.0084,-0.0084,-0.0127,-0.0129,-0.013,0,0,0,0,0,0,0,0,0,0,0,0,0,0.0011,0.0011,-0.0004,-0.0004,-0.0005,-0.0054,-0.0054,-0.0055,-0.0084,-0.0084,-0.0084,-0.0084,-0.0127,-0.0128,-0.013,0,0,0,0,0,0,0,0,0,0,0,0,0,-0.0014,0.0011,-0.0003,-0.0024,-0.0026,-0.0053,-0.0054,-0.0055,-0.0084,-0.0084,-0.0084,-0.0084,-0.0127,-0.0128,-0.013,-0.0143,0,0,-0.0136,-0.0136,0,0,0,0,0,0,0,0,-0.0013,-0.0015,-0.002,-0.0022,-0.0025,-0.0061,-0.0065,-0.0084,-0.0084,-0.0064,-0.0084,-0.0084,-0.0104,-0.0107,-0.0119,-0.0145,-0.0146,-0.0136,-0.0137,-0.0138,-0.0138,0,0,0,0,0,0,0,-0.0011,-0.0013,-0.0025,-0.0021,-0.0023,-0.0049,-0.0052,-0.0069,-0.0085,-0.0066,-0.0067,-0.007,-0.0105,-0.0118,-0.012,-0.0147,-0.0136,-0.0137,-0.0138,-0.0139,-0.0195,-0.0195,0,0,0,0,0,0,0.0002,-0.0011,-0.0024,-0.0026,-0.0016,-0.0049,-0.0053,-0.0051,-0.0085,-0.0089,-0.007,-0.0071,-0.0115,-0.0118,-0.0122,-0.0129,-0.0138,-0.0139,-0.014,-0.0194,-0.0195,-0.0195,0,0,0,0,0,0,0.0002,0.0001,-0.0021,-0.0019,-0.0023,-0.0049,-0.0047,-0.0052,-0.006,-0.0088,-0.0093,-0.0072,-0.0115,-0.012,-0.0136,-0.0131,-0.014,-0.0142,-0.0194,-0.0195,-0.0195,-0.0148,0,0,0,0,0,0,0.0003,0.0002,0.0006,-0.0018,-0.0023,-0.0028,-0.0047,-0.0053,-0.0061,-0.0063,-0.0091,-0.0096,-0.0115,-0.0133,-0.0138,-0.0133,-0.0143,-0.0193,-0.0194,-0.0195,-0.0149,-0.0147,-0.0145,0,0,0,0,0,0.0004,0.0017,0.0007,0.0005,-0.0015,-0.0027,-0.0033,-0.0052,-0.0061,-0.0061,-0.0085,-0.0095,-0.0141,-0.0135,-0.014,-0.0136,-0.0193,-0.0194,-0.0195,-0.015,-0.0147,-0.0145,0,0,0,0,0,0,0.0027,0.0014,0.0003,0.0012,-0.0004,-0.0031,-0.0031,-0.0047,-0.0067,-0.0068,-0.0097,-0.0103,-0.0117,-0.0136,-0.0128,-0.0157,-0.017,-0.0172,-0.0134,-0.0132,-0.013,-0.0104,-0.0145,0,0,0,0,0,0.0034,0.0036,0.0019,0.0022,0.0021,-0.0006,-0.0014,-0.0027,-0.0048,-0.0056,-0.0075,-0.0101,-0.0127,-0.0135,-0.0159,-0.017,-0.0205,-0.0174,-0.0172,-0.017,-0.0154,-0.0221,-0.0223,-0.0198,-0.0198,-0.0198,0,0,0.0044,0.0035,0.0036,0.0026,0.0013,0.0025,-0.001,-0.0016,-0.0012,-0.0057,-0.0056,-0.0092,-0.013,-0.0145,-0.0153,-0.0158,-0.0196,-0.0171,-0.0169,-0.0154,-0.0222,-0.0224,-0.0227,-0.0199,-0.0199,-0.0199,0,0,0.0072,0.0058,0.0076,0.007,0.0057,0.0043,0.0046,0.0026,0.0011,0.0002,-0.0035,-0.0068,-0.0094,-0.0126,-0.0145,-0.0147,-0.0185,-0.0156,-0.012,-0.0186,-0.0188,-0.019,-0.0238,-0.0245,-0.0153,-0.0153,-0.0153,0,0.0087,0.0106,0.0078,0.0097,0.0102,0.006,0.0087,0.0065,0.0039,0.0035,0.0012,-0.0056,-0.0084,-0.012,-0.0117,-0.014,-0.0178,-0.0123,-0.0182,-0.0185,-0.0188,-0.0236,-0.0245,-0.0151,-0.0151,-0.0151,-0.0151,0,0.0128,0.0148,0.0159,0.0171,0.0171,0.0181,0.0158,0.0149,0.0125,0.0107,0.0065,-0.0003,-0.0036,-0.0065,-0.0085,-0.0125,-0.0144,-0.0173,-0.0183,-0.0188,-0.0238,-0.0248,-0.0148,-0.0148,-0.0149,-0.015,0,0,0.0162,0.0186,0.0194,0.0219,0.0212,0.0221,0.0222,0.022,0.0233,0.0169,0.016,0.0089,0.0049,0.0022,-0.0038,-0.0099,-0.0156,-0.0133,-0.0138,-0.017,-0.029,-0.0265,-0.0273,-0.0198,-0.0199,-0.02,-0.0315,0,0.0208,0.0267,0.0262,0.0319,0.0351,0.0319,0.0332,0.0319,0.0294,0.0274,0.0168,0.0144,0.008,0.0058,-0.0016,-0.0128,-0.0178,-0.012,-0.0288,-0.0292,-0.0262,-0.0282,-0.0204,-0.0323,-0.0325,-0.0327,-0.0328,0,0.0262,0.0291,0.0363,0.0404,0.0416,0.0445,0.0462,0.047,0.0427,0.04,0.0334,0.0259,0.0151,0.0097,-0.0099,-0.0061,-0.0149,-0.0244,-0.0251,-0.0246,-0.0284,-0.032,-0.0346,-0.0344,-0.0343,-0.0342,-0.0341,0,0.0315,0.0369,0.043,0.0444,0.0479,0.0507,0.0528,0.0521,0.0543,0.0486,0.0482,0.0331,0.0251,0.0095,-0.0093,-0.0093,-0.0314,-0.0342,-0.0403,-0.0403,-0.0411,-0.0407,-0.0449,-0.0449,-0.0449,-0.0448,-0.0448,0,0.0374,0.0422,0.0466,0.0505,0.0581,0.0581,0.0661,0.0655,0.0651,0.0682,0.0562,0.0511,0.0248,0.0088,-0.0075,-0.0274,-0.0301,-0.0392,-0.0432,-0.0389,-0.0381,-0.0418,-0.0413,-0.0453,-0.0452,-0.0451,-0.045,0,0.0428,0.0454,0.0531,0.059,0.062,0.0679,0.0765,0.081,0.0801,0.0823,0.0805,0.063,0.0412,0.0163,-0.0116,-0.0238,-0.0435,-0.0483,-0.0409,-0.0444,-0.0482,-0.0473,-0.0568,-0.0568,-0.0568,-0.0568,-0.0568,0,0.046,0.0511,0.061,0.066,0.0697,0.0786,0.085,0.0885,0.0925,0.0892,0.0884,0.0696,0.0554,0.0176,-0.0094,-0.0412,-0.0441,-0.0527,-0.0509,-0.0465,-0.0495,-0.0486,-0.0477,-0.0568,-0.0568,-0.0568,-0.0568,0,0.0517,0.0558,0.0619,0.0737,0.0822,0.0918,0.1003,0.1042,0.1065,0.1056,0.0963,0.077,0.0518,0.0188,-0.0057,-0.0282,-0.0476,-0.0529,-0.053,-0.0514,-0.0467,-0.0495,-0.0486,-0.0569,-0.0569,-0.0569,-0.0569,0,0.0557,0.0606,0.0698,0.0796,0.0906,0.1004,0.1053,0.1084,0.1128,0.1084,0.1038,0.0784,0.061,0.0257,0.0024,-0.0199,-0.0249,-0.0295,-0.031,-0.0312,-0.0207,-0.0109,-0.013,0,0,0,0,0,0.0583,0.0643,0.0742,0.0853,0.0964,0.1036,0.1126,0.1154,0.1172,0.1132,0.1098,0.0876,0.0523,0.0338,0.0122,0.0006,-0.0301,-0.0252,-0.0365,-0.057,-0.057,-0.0488,0,0,0,0,0,0,0.0601,0.0693,0.0743,0.0884,0.0966,0.11,0.1164,0.1179,0.1146,0.112,0.0918,0.0845,0.0472,0.0646,0.0122,0.005,-0.0043,-0.0425,-0.0428,-0.057,-0.057,-0.057,-0.0486,0,0,0,0,0]}]]